Starlink 3176

operational
NORAD ID: 51106 Int'l Des: 2022-005 Owner: SPXS Country: US Constellation: starlink
LEOCIRCULAR

Über Starlink 3176

Beschreibung wird geladen...

Live-Position

3D-Globus wird geladen...

Nächste Überflüge

Höhenverlauf

Altitude vs Time

uPlot chart will show altitude changes over time

Zweizeiliger Elementsatz

1 51106U 22005C 25303.59618481 .00000007 00000-0 18518-4 0 9991
2 51106 53.2175 153.1350 0001522 83.2949 276.8216 15.08840386209232
Epoch: 30. Okt. 2025 • Age: 29 hours

Aktueller Status

Höhe 541.3 km
Geschwindigkeit 7.60 km/s
Subsatellitenpunkt 33.61°N, 149.72°W
Startdatum 19. Jan. 2022
Alter 3.7 years
Typ internet

Technische Details

Klassifizierung Payload
Masse 297.00 kg
Trockenmasse 275.00 kg
Gesamtmasse 297.00 kg
Länge 0.20 m
Durchmesser 2.80 m
Spannweite 9.00 m
Form Box + pan
Hersteller SPXS
Bus-Typ Starlink
Phasenstatus In Orbit
Besitzer/Staat SPXS/US

Große Konstellationen

Loading constellations...